Time,TemperatureF,DewpointF,PressureIn,WindDirection,WindDirectionDegrees,WindSpeedMPH,WindSpeedGustMPH,Humidity,HourlyPrecipIn,Conditions,Clouds,dailyrainin,SoftwareType,DateUTC
2013-01-19 00:15:00,34.9,12.0,30.32,ENE,57,5.0,10.0,39,0.00,,,0.00,weatherlink.com 1.10,2013-01-19 05:15:00,
2013-01-19 00:35:00,35.8,8.0,30.31,East,79,5.0,11.0,32,0.00,,,0.00,weatherlink.com 1.10,2013-01-19 05:35:00,
2013-01-19 00:53:00,35.7,8.0,30.31,ENE,63,6.0,9.0,31,0.00,,,0.00,weatherlink.com 1.10,2013-01-19 05:53:00,
2013-01-19 01:11:00,36.5,6.0,30.29,ENE,59,6.0,15.0,28,0.00,,,0.00,weatherlink.com 1.10,2013-01-19 06:11:00,
2013-01-19 01:31:00,37.9,5.0,30.29,NE,48,3.0,18.0,25,0.00,,,0.00,weatherlink.com 1.10,2013-01-19 06:31:00,
2013-01-19 01:49:00,38.8,6.0,30.29,East,79,8.0,21.0,25,0.00,,,0.00,weatherlink.com 1.10,2013-01-19 06:49:00,
2013-01-19 02:07:00,38.7,6.0,30.29,SE,131,4.0,20.0,26,0.00,,,0.00,weatherlink.com 1.10,2013-01-19 07:07:00,
2013-01-19 02:27:00,38.5,7.0,30.29,NNE,27,10.0,16.0,27,0.00,,,0.00,weatherlink.com 1.10,2013-01-19 07:27:00,
2013-01-19 02:45:00,38.7,6.0,30.29,ESE,109,11.0,17.0,26,0.00,,,0.00,weatherlink.com 1.10,2013-01-19 07:45:00,
2013-01-19 03:03:00,38.9,7.0,30.29,NNE,15,12.0,19.0,27,0.00,,,0.00,weatherlink.com 1.10,2013-01-19 08:03:00,
2013-01-19 03:23:00,38.9,8.0,30.28,NE,55,3.0,17.0,28,0.00,,,0.00,weatherlink.com 1.10,2013-01-19 08:23:00,
2013-01-19 03:41:00,38.7,8.0,30.27,ENE,64,8.0,19.0,28,0.00,,,0.00,weatherlink.com 1.10,2013-01-19 08:41:00,
2013-01-19 03:59:00,38.3,9.0,30.27,East,79,8.0,15.0,30,0.00,,,0.00,weatherlink.com 1.10,2013-01-19 08:59:00,
2013-01-19 04:17:00,38.4,10.0,30.26,NE,40,12.0,16.0,31,0.00,,,0.00,weatherlink.com 1.10,2013-01-19 09:17:00,
2013-01-19 04:37:00,38.5,11.0,30.26,ESE,103,9.0,14.0,32,0.00,,,0.00,weatherlink.com 1.10,2013-01-19 09:37:00,
2013-01-19 04:55:00,38.9,11.0,30.25,ENE,61,8.0,16.0,32,0.00,,,0.00,weatherlink.com 1.10,2013-01-19 09:55:00,
2013-01-19 05:13:00,38.8,12.0,30.25,ENE,70,10.0,18.0,33,0.00,,,0.00,weatherlink.com 1.10,2013-01-19 10:13:00,
2013-01-19 05:33:00,38.5,13.0,30.25,East,89,3.0,17.0,35,0.00,,,0.00,weatherlink.com 1.10,2013-01-19 10:33:00,
2013-01-19 05:51:00,38.5,13.0,30.24,ENE,67,3.0,16.0,35,0.00,,,0.00,weatherlink.com 1.10,2013-01-19 10:51:00,
2013-01-19 06:09:00,38.5,14.0,30.23,NE,56,14.0,18.0,36,0.00,,,0.00,weatherlink.com 1.10,2013-01-19 11:09:00,
2013-01-19 08:01:00,39.3,16.0,30.22,East,95,5.0,21.0,39,0.00,,,0.00,weatherlink.com 1.10,2013-01-19 13:01:00,
2013-01-19 08:19:00,40.0,17.0,30.22,ESE,103,5.0,21.0,39,0.00,,,0.00,weatherlink.com 1.10,2013-01-19 13:19:00,
2013-01-19 08:37:00,40.7,17.0,30.23,NE,46,9.0,21.0,39,0.00,,,0.00,weatherlink.com 1.10,2013-01-19 13:37:00,
2013-01-19 08:58:00,41.3,17.0,30.23,East,88,6.0,19.0,38,0.00,,,0.00,weatherlink.com 1.10,2013-01-19 13:58:00,
2013-01-19 09:14:00,41.6,18.0,30.23,NE,45,9.0,17.0,38,0.00,,,0.00,weatherlink.com 1.10,2013-01-19 14:14:00,
2013-01-19 09:34:00,42.4,19.0,30.23,NE,41,11.0,14.0,39,0.00,,,0.00,weatherlink.com 1.10,2013-01-19 14:34:00,
2013-01-19 09:52:00,43.0,19.0,30.22,NE,47,8.0,16.0,39,0.00,,,0.00,weatherlink.com 1.10,2013-01-19 14:52:00,
2013-01-19 10:10:00,43.8,20.0,30.22,NE,44,10.0,21.0,38,0.00,,,0.00,weatherlink.com 1.10,2013-01-19 15:10:00,
2013-01-19 10:30:00,44.8,20.0,30.22,NE,53,7.0,15.0,37,0.00,,,0.00,weatherlink.com 1.10,2013-01-19 15:30:00,
2013-01-19 10:48:00,45.4,20.0,30.21,NE,55,3.0,17.0,37,0.00,,,0.00,weatherlink.com 1.10,2013-01-19 15:48:00,
2013-01-19 11:06:00,46.5,21.0,30.20,East,88,4.0,20.0,36,0.00,,,0.00,weatherlink.com 1.10,2013-01-19 16:06:00,
2013-01-19 11:26:00,47.4,20.0,30.19,NE,46,7.0,18.0,34,0.00,,,0.00,weatherlink.com 1.10,2013-01-19 16:26:00,
2013-01-19 11:44:00,48.0,20.0,30.17,East,98,5.0,22.0,33,0.00,,,0.00,weatherlink.com 1.10,2013-01-19 16:44:00,
2013-01-19 12:02:00,48.8,19.0,30.15,ENE,57,8.0,17.0,31,0.00,,,0.00,weatherlink.com 1.10,2013-01-19 17:02:00,
2013-01-19 12:20:00,49.3,19.0,30.14,East,95,11.0,27.0,30,0.00,,,0.00,weatherlink.com 1.10,2013-01-19 17:20:00,
2013-01-19 12:40:00,50.4,19.0,30.13,NNE,15,13.0,17.0,29,0.00,,,0.00,weatherlink.com 1.10,2013-01-19 17:40:00,
2013-01-19 12:58:00,50.4,17.0,30.11,NE,53,16.0,21.0,27,0.00,,,0.00,weatherlink.com 1.10,2013-01-19 17:58:00,
2013-01-19 13:16:00,51.1,19.0,30.10,ENE,77,5.0,20.0,28,0.00,,,0.00,weatherlink.com 1.10,2013-01-19 18:16:00,
2013-01-19 13:36:00,51.4,17.0,30.09,ENE,64,16.0,19.0,26,0.00,,,0.00,weatherlink.com 1.10,2013-01-19 18:36:00,
2013-01-19 13:54:00,52.2,17.0,30.08,SE,124,4.0,23.0,25,0.00,,,0.00,weatherlink.com 1.10,2013-01-19 18:54:00,
2013-01-19 14:12:00,52.9,18.0,30.07,SE,124,7.0,18.0,25,0.00,,,0.00,weatherlink.com 1.10,2013-01-19 19:12:00,
2013-01-19 14:32:00,52.9,19.0,30.05,East,79,11.0,23.0,26,0.00,,,0.00,weatherlink.com 1.10,2013-01-19 19:32:00,
2013-01-19 14:50:00,53.6,21.0,30.05,ENE,73,6.0,19.0,28,0.00,,,0.00,weatherlink.com 1.10,2013-01-19 19:50:00,
2013-01-19 15:08:00,53.2,20.0,30.04,NE,39,12.0,16.0,27,0.00,,,0.00,weatherlink.com 1.10,2013-01-19 20:08:00,
2013-01-19 16:04:00,53.2,21.0,30.02,NE,46,15.0,21.0,28,0.00,,,0.00,weatherlink.com 1.10,2013-01-19 21:04:00,
2013-01-19 16:22:00,53.2,21.0,30.00,SE,131,5.0,13.0,28,0.00,,,0.00,weatherlink.com 1.10,2013-01-19 21:22:00,
2013-01-19 16:43:00,52.5,21.0,30.00,ENE,57,6.0,12.0,29,0.00,,,0.00,weatherlink.com 1.10,2013-01-19 21:43:00,
2013-01-19 17:17:00,50.4,21.0,29.99,ENE,63,2.0,9.0,31,0.00,,,0.00,weatherlink.com 1.10,2013-01-19 22:17:00,
2013-01-19 17:37:00,49.9,20.0,29.98,ENE,61,3.0,10.0,31,0.00,,,0.00,weatherlink.com 1.10,2013-01-19 22:37:00,
2013-01-19 18:13:00,49.0,19.0,29.96,NE,51,3.0,8.0,31,0.00,,,0.00,weatherlink.com 1.10,2013-01-19 23:13:00,
2013-01-19 18:31:00,48.7,19.0,29.96,NNE,32,5.0,9.0,31,0.00,,,0.00,weatherlink.com 1.10,2013-01-19 23:31:00,
2013-01-19 18:51:00,48.7,19.0,29.96,ENE,68,3.0,6.0,31,0.00,,,0.00,weatherlink.com 1.10,2013-01-19 23:51:00,
2013-01-19 19:09:00,49.0,19.0,29.95,ENE,77,4.0,15.0,30,0.00,,,0.00,weatherlink.com 1.10,2013-01-20 00:09:00,
2013-01-19 19:27:00,49.2,19.0,29.95,NE,47,10.0,17.0,30,0.00,,,0.00,weatherlink.com 1.10,2013-01-20 00:27:00,
2013-01-19 19:47:00,49.6,18.0,29.94,NE,54,13.0,19.0,29,0.00,,,0.00,weatherlink.com 1.10,2013-01-20 00:47:00,
2013-01-19 20:23:00,50.1,19.0,29.91,NNE,16,12.0,20.0,29,0.00,,,0.00,weatherlink.com 1.10,2013-01-20 01:23:00,
2013-01-19 21:19:00,50.2,19.0,29.88,NE,47,8.0,27.0,29,0.00,,,0.00,weatherlink.com 1.10,2013-01-20 02:19:00,
2013-01-19 21:37:00,50.2,20.0,29.88,NE,43,7.0,20.0,30,0.00,,,0.00,weatherlink.com 1.10,2013-01-20 02:37:00,
2013-01-19 21:57:00,50.0,20.0,29.87,East,98,3.0,23.0,31,0.00,,,0.00,weatherlink.com 1.10,2013-01-20 02:57:00,
2013-01-19 22:15:00,49.5,21.0,29.88,ESE,107,16.0,19.0,32,0.00,,,0.00,weatherlink.com 1.10,2013-01-20 03:15:00,
2013-01-19 22:33:00,48.7,21.0,29.87,SE,126,8.0,18.0,33,0.00,,,0.00,weatherlink.com 1.10,2013-01-20 03:33:00,
2013-01-19 22:52:00,48.0,21.0,29.87,NE,44,14.0,18.0,34,0.00,,,0.00,weatherlink.com 1.10,2013-01-20 03:52:00,
2013-01-19 23:10:00,47.3,21.0,29.87,NNE,33,14.0,17.0,36,0.00,,,0.00,weatherlink.com 1.10,2013-01-20 04:10:00,
2013-01-19 23:30:00,46.8,22.0,29.86,ENE,58,13.0,16.0,37,0.00,,,0.00,weatherlink.com 1.10,2013-01-20 04:30:00,
2013-01-19 23:48:00,46.5,21.0,29.86,ENE,75,14.0,16.0,37,0.00,,,0.00,weatherlink.com 1.10,2013-01-20 04:48:00,